User: anonymous   Login
Location: Caltech
(34.1382°N, 118.1253°W)
Time: 13:36:21
(UTC-08:00)
Language:

Cosmos 44 Rocket - Orbit

View from above orbital plane
View from above orbital plane
View from above satellite
View from above satellite

Ground track
Ground track

The orbit data is extracted from the following two-line orbital elements,

1   877U 64053B   17345.88543534 -.00000094 +00000-0 +55987-5 0  9993
2   877 065.0772 133.1682 0056872 027.7977 332.6141 14.59315849827457
Epoch (UTC): 11 December 2017 21:15:01
Eccentricity: 0.0056872
inclination: 65.0772°
perigee height: 655 km
apogee height: 735 km
right ascension of ascending node: 133.1682°
argument of perigee: 27.7977°
revolutions per day: 14.59315849
mean anomaly at epoch: 332.6141°
orbit number at epoch: 82745

The dashed part of the orbit path shows where the satellite is in the earth's shadow,  

DLR